Weather History for EGWU - February, 2014

Change the Weather History Date:

Tuesday, February 18, 2014

  Actual Average Record
Temperature  
Mean Temperature 46 °F -  
Max Temperature 50 °F 48 °F 53 °F (1998)
Min Temperature 41 °F 37 °F 21 °F (2008)
Degree Days  
Heating Degree Days 20    
Moisture  
Dew Point 43 °F    
Average Humidity 87    
Maximum Humidity 93    
Minimum Humidity 70    
Precipitation  
Precipitation 0.28 in - - ()
Sea Level Pressure  
Sea Level Pressure 29.78 in    
Wind  
Wind Speed 6 mph ()    
Max Wind Speed 10 mph    
Max Gust Speed -    
Visibility 8.7 miles    
Events Fog , Rain    
Averages and records for this station are not official NWS values.
T = Trace of Precipitation, MM = Missing Value Source: Averaged Metar Reports

Daily Weather History Graph

Daily Weather History Graph

Search for Another Location

Airport or City:

Trip Planner

Search our weather history database for the weather conditions in past years. The results will help you decide how hot, cold, wet, or windy it might be!

Date:

Astronomy

Feb. 18, 2014 Rise Set
Actual Time 7:10 AM GMT 5:21 PM GMT
Civil Twilight 6:35 AM GMT 5:56 PM GMT
Nautical Twilight 5:56 AM GMT 6:35 PM GMT
Astronomical Twilight 5:18 AM GMT 7:13 PM GMT
Moon 9:31 PM GMT (2/18) 8:06 AM GMT (2/18)
Length of Visible Light 11h 20m
Length of Day
10h 11m
Waning Gibbous, 89% of the Moon is Illuminated
Feb 18
Waning Gibbous
Feb 22
Last Quarter
Mar 1
New
Mar 8
First Quarter
Mar 16
Full

Hourly Weather History & Observations

Time (GMT) Temp. Windchill Dew Point Humidity Pressure Visibility Wind Dir Wind Speed Gust Speed Precip Events Conditions
12:00 AM 46 °F - 43 °F 85% 29.81 in 14 mi South 10.4 mph - -   Mostly Cloudy
12:50 AM 46.4 °F 41.9 °F 42.8 °F 87% 29.77 in 6.2 mi South 9.2 mph - N/A   Mostly Cloudy
1:00 AM 46 °F - 43 °F 85% 29.80 in 7 mi South 9.2 mph - -   Scattered Clouds
1:50 AM 46.4 °F 42.4 °F 42.8 °F 87% 29.77 in 6.2 mi South 8.1 mph - N/A   Mostly Cloudy
2:00 AM 46 °F - 43 °F 86% 29.79 in 9 mi South 8.1 mph - -   Mostly Cloudy
2:50 AM 46.4 °F 43.5 °F 42.8 °F 87% 29.77 in 6.2 mi South 5.8 mph - N/A   Mostly Cloudy
3:00 AM 46 °F - 43 °F 87% 29.79 in 17 mi South 5.8 mph - -   Mostly Cloudy
3:50 AM 44.6 °F 42.2 °F 42.8 °F 93% 29.77 in 6.2 mi South 4.6 mph - N/A   Mostly Cloudy
4:00 AM 45 °F - 43 °F 92% 29.79 in 13 mi South 4.6 mph - -   Scattered Clouds
4:50 AM 44.6 °F 42.2 °F 42.8 °F 93% 29.77 in 6.2 mi South 4.6 mph - N/A   Mostly Cloudy
5:00 AM 45 °F - 43 °F 92% 29.78 in 12 mi South 4.6 mph - -   Mostly Cloudy
5:50 AM 46.4 °F 42.9 °F 44.6 °F 93% 29.77 in 6.2 mi South 6.9 mph - N/A   Mostly Cloudy
6:00 AM 46 °F - 44 °F 89% 29.78 in 13 mi South 6.9 mph - -   Partly Cloudy
6:50 AM 46.4 °F 43.5 °F 44.6 °F 93% 29.77 in 6.2 mi South 5.8 mph - N/A   Mostly Cloudy
7:00 AM 46 °F - 44 °F 89% 29.77 in 9 mi South 5.8 mph - -   Mostly Cloudy
7:09 AM 46.4 °F 42.9 °F 44.6 °F 93% 29.77 in 6.2 mi South 6.9 mph - N/A   Mostly Cloudy
7:50 AM 46.4 °F 43.5 °F 44.6 °F 93% 29.77 in 6.2 mi South 5.8 mph - N/A   Mostly Cloudy
8:00 AM 47 °F - 44 °F 85% 29.78 in 12 mi South 5.8 mph - -   Mostly Cloudy
8:50 AM 48.2 °F - 44.6 °F 87% 29.77 in 6.2 mi SSW 8.1 mph - N/A Rain Light Rain Showers
9:00 AM 48 °F - 44 °F 82% 29.79 in 11 mi SSW 8.1 mph - - Rain Light Rain Showers
9:50 AM 48.2 °F - 44.6 °F 87% 29.77 in 6.2 mi SSW 6.9 mph - N/A Rain Light Rain Showers
10:00 AM 48 °F - 45 °F 86% 29.79 in 7 mi SSW 6.9 mph - - Rain Light Rain Showers
10:50 AM 50.0 °F - 46.4 °F 87% 29.77 in 6.2 mi SSW 8.1 mph - N/A   Mostly Cloudy
11:00 AM 50 °F - 46 °F 79% 29.79 in 12 mi SSW 8.1 mph - - Rain Light Rain Showers
11:50 AM 48.2 °F - 44.6 °F 87% 29.77 in 6.2 mi SW 6.9 mph - N/A Rain Rain Showers
12:00 PM 48 °F - 45 °F 84% 29.78 in 12 mi SW 6.9 mph - - Rain Heavy Rain Showers
12:01 PM 48.2 °F - 44.6 °F 87% 29.77 in 2.8 mi WSW 6.9 mph - N/A Rain Rain Showers
12:36 PM 48.2 °F - 44.6 °F 87% 29.77 in 6.2 mi SW 8.1 mph - N/A   Mostly Cloudy
12:50 PM 48.2 °F - 44.6 °F 87% 29.77 in 6.2 mi WSW 8.1 mph - N/A   Mostly Cloudy
1:00 PM 49 °F - 45 °F 83% 29.77 in 12 mi WSW 8.1 mph - - Rain Light Rain Showers
1:50 PM 50.0 °F - 44.6 °F 82% 29.74 in 6.2 mi SSW 10.4 mph - N/A   Scattered Clouds
2:00 PM 49 °F - 44 °F 79% 29.75 in 12 mi SSW 10.4 mph - - Rain Light Rain Showers
2:50 PM 50.0 °F - 42.8 °F 76% 29.74 in 6.2 mi WSW 10.4 mph - N/A   Partly Cloudy
3:00 PM 50 °F - 43 °F 70% 29.75 in 25 mi WSW 10.4 mph - -   Partly Cloudy
3:50 PM 50.0 °F - 42.8 °F 76% 29.74 in 6.2 mi SW 8.1 mph - N/A   Scattered Clouds
4:00 PM 49 °F - 43 °F 74% 29.76 in 9 mi SW 8.1 mph - -   Scattered Clouds
4:50 PM 48.2 °F - 44.6 °F 87% 29.74 in 6.2 mi SW 6.9 mph - N/A   Scattered Clouds
5:00 PM 48 °F - 45 °F 87% 29.75 in 11 mi SW 6.9 mph - - Rain Light Rain Showers
5:33 PM 48.2 °F - 44.6 °F 87% 29.74 in 6.2 mi WSW 2.3 mph - N/A   Mostly Cloudy
5:50 PM 48.2 °F - 44.6 °F 87% 29.74 in 6.2 mi WSW 4.6 mph - N/A   Mostly Cloudy
6:00 PM 47 °F - 45 °F 88% 29.77 in 16 mi WSW 4.6 mph - - Rain Light Rain Showers
6:50 PM 44.6 °F - 42.8 °F 93% 29.77 in 6.2 mi WNW 1.2 mph - N/A   Mostly Cloudy
7:00 PM 45 °F - 43 °F 90% 29.79 in 12 mi WNW 1.2 mph - -   Mostly Cloudy
7:50 PM 44.6 °F 43.1 °F 42.8 °F 93% 29.77 in - SW 3.5 mph - N/A   Clear
8:00 PM 44 °F - 42 °F 91% 29.79 in 14 mi SW 3.5 mph - -   Scattered Clouds
8:50 PM 42.8 °F 40.1 °F 41.0 °F 93% 29.80 in 6.2 mi WSW 4.6 mph - N/A   Partly Cloudy
9:00 PM 43 °F - 41 °F 90% 29.81 in 14 mi WSW 4.6 mph - -   Partly Cloudy
9:50 PM 42.8 °F 39.3 °F 41.0 °F 93% 29.80 in 6.2 mi WSW 5.8 mph - N/A   Partly Cloudy
10:00 PM 42 °F - 41 °F 93% 29.82 in 11 mi WSW 5.8 mph - -   Scattered Clouds
10:50 PM 41.0 °F 39.0 °F 39.2 °F 93% 29.80 in 6.2 mi West 3.5 mph - N/A Fog Shallow Fog
11:00 PM 41 °F - 39 °F 92% 29.82 in 12 mi West 3.5 mph - - Fog Patches of Fog
11:50 PM 41.0 °F 35.8 °F 39.2 °F 93% 29.83 in 6.2 mi West 8.1 mph - N/A   Unknown